| time (UTC) | temp F | wind direction | speed MPH | gust MPH | rain 1hr in | rain 24hr in | rain mn in | humidity % | barometer mb |
| 20260504022822 | 61 | 247 | 7.0 | 10.0 | 0.00 | 0.00 | 0.00 | 32 | 1003.5 |
| 20260504021822 | 62 | 247 | 8.0 | 10.0 | 0.00 | 0.00 | 0.00 | 31 | 1003.7 |
| 20260504020920 | 62 | 247 | 8.0 | 10.0 | 0.00 | 0.00 | 0.00 | 31 | 1003.7 |
| 20260504015922 | 62 | 247 | 7.0 | 8.0 | 0.00 | 0.00 | 0.00 | 29 | 1003.7 |
| 20260504014922 | 64 | 247 | 7.0 | 9.0 | 0.00 | 0.00 | 0.00 | 28 | 1003.9 |
| 20260504013922 | 65 | 248 | 8.0 | 9.0 | 0.00 | 0.00 | 0.00 | 27 | 1003.9 |
| 20260504012921 | 66 | 247 | 9.0 | 12.0 | 0.00 | 0.00 | 0.00 | 25 | 1004.2 |
| 20260504011923 | 68 | 247 | 10.0 | 13.0 | 0.00 | 0.00 | 0.00 | 23 | 1004.4 |
| 20260504010923 | 69 | 248 | 12.0 | 16.0 | 0.00 | 0.00 | 0.00 | 23 | 1004.5 |
| 20260504004922 | 70 | 251 | 12.0 | 15.0 | 0.00 | 0.00 | 0.00 | 22 | 1004.9 |
| 20260504003923 | 71 | 261 | 14.0 | 17.0 | 0.00 | 0.00 | 0.00 | 22 | 1005.1 |
| 20260504002937 | 71 | 252 | 13.0 | 18.0 | 0.00 | 0.00 | 0.00 | 21 | 1005.2 |
| 20260504001921 | 71 | 273 | 17.0 | 20.0 | 0.00 | 0.00 | 0.00 | 20 | 1005.2 |
| 20260504000921 | 72 | 285 | 13.0 | 17.0 | 0.00 | 0.00 | 0.00 | 20 | 1005.4 |
| 20260503235021 | 72 | 281 | 15.0 | 21.0 | 0.00 | 0.00 | 0.00 | 20 | 1005.7 |
| 20260503234023 | 72 | 266 | 11.0 | 15.0 | 0.00 | 0.00 | 0.00 | 20 | 1005.7 |
| 20260503232021 | 73 | 250 | 18.0 | 19.0 | 0.00 | 0.00 | 0.00 | 24 | 1006.0 |
| 20260503231021 | 73 | 274 | 18.0 | 25.0 | 0.00 | 0.00 | 0.00 | 24 | 1006.0 |
| 20260503230021 | 73 | 251 | 16.0 | 20.0 | 0.00 | 0.00 | 0.00 | 23 | 1005.9 |
| 20260503225022 | 73 | 275 | 21.0 | 25.0 | 0.00 | 0.00 | 0.00 | 23 | 1006.1 |
| 20260503224022 | 72 | 248 | 20.0 | 26.0 | 0.00 | 0.00 | 0.00 | 24 | 1006.1 |
| 20260503223023 | 74 | 250 | 16.0 | 18.0 | 0.00 | 0.00 | 0.00 | 24 | 1006.5 |
| 20260503222121 | 74 | 251 | 16.0 | 19.0 | 0.00 | 0.00 | 0.00 | 23 | 1006.6 |
| 20260503220221 | 74 | 261 | 16.0 | 19.0 | 0.00 | 0.00 | 0.00 | 23 | 1007.1 |
| 20260503215320 | 73 | 253 | 19.0 | 23.0 | 0.00 | 0.00 | 0.00 | 23 | 1007.1 |
| 20260503214337 | 72 | 244 | 20.0 | 25.0 | 0.00 | 0.00 | 0.00 | 25 | 1007.4 |
| 20260503213322 | 72 | 247 | 17.0 | 21.0 | 0.00 | 0.00 | 0.00 | 24 | 1007.7 |
| 20260503212322 | 72 | 249 | 16.0 | 21.0 | 0.00 | 0.00 | 0.00 | 25 | 1007.9 |
| 20260503211420 | 73 | 284 | 19.0 | 22.0 | 0.00 | 0.00 | 0.00 | 23 | 1008.1 |
| 20260503210421 | 72 | 251 | 18.0 | 24.0 | 0.00 | 0.00 | 0.00 | 24 | 1008.4 |
| 20260503205422 | 72 | 247 | 21.0 | 31.0 | 0.00 | 0.00 | 0.00 | 24 | 1008.8 |
| 20260503204421 | 72 | 277 | 15.0 | 21.0 | 0.00 | 0.00 | 0.00 | 24 | 1009.0 |
| 20260503203422 | 72 | 247 | 17.0 | 23.0 | 0.00 | 0.00 | 0.00 | 25 | 1009.2 |
| 20260503201522 | 71 | 248 | 14.0 | 18.0 | 0.00 | 0.00 | 0.00 | 26 | 1009.7 |
| 20260503200521 | 71 | 247 | 22.0 | 28.0 | 0.00 | 0.00 | 0.00 | 26 | 1009.8 |
| 20260503195523 | 72 | 248 | 23.0 | 28.0 | 0.00 | 0.00 | 0.00 | 27 | 1010.1 |
| 20260503194522 | 71 | 254 | 14.0 | 17.0 | 0.00 | 0.00 | 0.00 | 27 | 1010.4 |
| 20260503193523 | 72 | 247 | 16.0 | 25.0 | 0.00 | 0.00 | 0.00 | 26 | 1010.6 |
| 20260503192620 | 70 | 260 | 18.0 | 22.0 | 0.00 | 0.00 | 0.00 | 26 | 1010.9 |
| 20260503191622 | 70 | 248 | 18.0 | 23.0 | 0.00 | 0.00 | 0.00 | 27 | 1011.0 |
| 20260503190623 | 70 | 261 | 10.0 | 16.0 | 0.00 | 0.00 | 0.00 | 26 | 1011.4 |
| 20260503185621 | 70 | 278 | 13.0 | 19.0 | 0.00 | 0.00 | 0.00 | 28 | 1011.6 |
| 20260503184622 | 70 | 247 | 22.0 | 25.0 | 0.00 | 0.00 | 0.00 | 27 | 1011.7 |
| 20260503183623 | 69 | 247 | 12.0 | 16.0 | 0.00 | 0.00 | 0.00 | 27 | 1011.9 |
| 20260503182621 | 69 | 251 | 15.0 | 16.0 | 0.00 | 0.00 | 0.00 | 26 | 1012.1 |
| 20260503180721 | 69 | 256 | 16.0 | 22.0 | 0.00 | 0.00 | 0.00 | 28 | 1012.6 |
| 20260503175820 | 69 | 268 | 13.0 | 15.0 | 0.00 | 0.00 | 0.00 | 28 | 1012.9 |
| 20260503174920 | 68 | 254 | 16.0 | 21.0 | 0.00 | 0.00 | 0.00 | 28 | 1013.0 |
| 20260503173922 | 67 | 247 | 14.0 | 21.0 | 0.00 | 0.00 | 0.00 | 29 | 1013.2 |
| 20260503172921 | 67 | 247 | 16.0 | 21.0 | 0.00 | 0.00 | 0.00 | 28 | 1013.7 |
| 20260503171920 | 67 | 255 | 12.0 | 14.0 | 0.00 | 0.00 | 0.00 | 29 | 1013.9 |
| 20260503170921 | 67 | 247 | 13.0 | 17.0 | 0.00 | 0.00 | 0.00 | 31 | 1013.9 |
| 20260503150221 | 61 | 247 | 16.0 | 19.0 | 0.00 | 0.00 | 0.00 | 33 | 1016.1 |
| 20260503131321 | 45 | 247 | 8.0 | 10.0 | 0.00 | 0.00 | 0.00 | 59 | 1016.6 |
| 20260503130321 | 43 | 247 | 7.0 | 9.0 | 0.00 | 0.00 | 0.00 | 60 | 1016.6 |
| 20260503110621 | 33 | 247 | 6.0 | 7.0 | 0.00 | 0.00 | 0.00 | 71 | 1016.6 |
| 20260503080923 | 40 | 292 | 4.0 | 4.0 | 0.00 | 0.00 | 0.00 | 57 | 1017.6 |
| 20260503072221 | 44 | 292 | 2.0 | 3.0 | 0.00 | 0.00 | 0.00 | 49 | 1017.9 |
| 20260503071223 | 44 | 292 | 3.0 | 3.0 | 0.00 | 0.00 | 0.00 | 49 | 1018.0 |
| 20260503070221 | 45 | 292 | 3.0 | 3.0 | 0.00 | 0.00 | 0.00 | 48 | 1018.1 |
| 20260503060322 | 46 | 315 | 3.0 | 4.0 | 0.00 | 0.00 | 0.00 | 49 | 1018.1 |
| 20260503054417 | 46 | 326 | 3.0 | 4.0 | 0.00 | 0.00 | 0.00 | 48 | 1018.1 |
| 20260503053417 | 47 | 315 | 4.0 | 5.0 | 0.00 | 0.00 | 0.00 | 48 | 1017.9 |
| 20260503052419 | 46 | 337 | 3.0 | 4.0 | 0.00 | 0.00 | 0.00 | 50 | 1017.9 |
| 20260503050418 | 45 | 292 | 2.0 | 2.0 | 0.00 | 0.00 | 0.00 | 53 | 1017.9 |
| 20260503045418 | 45 | 308 | 2.0 | 3.0 | 0.00 | 0.00 | 0.00 | 54 | 1017.9 |
| 20260503044418 | 45 | 337 | 2.0 | 3.0 | 0.00 | 0.00 | 0.00 | 53 | 1018.1 |
| 20260503044317 | 45 | 337 | 2.0 | 3.0 | 0.00 | 0.00 | 0.00 | 53 | 1018.1 |
| 20260503042318 | 47 | 337 | 1.0 | 2.0 | 0.00 | 0.00 | 0.00 | 51 | 1018.1 |
| 20260503041318 | 47 | 337 | 2.0 | 3.0 | 0.00 | 0.00 | 0.00 | 51 | 1018.1 |
| 20260503035319 | 49 | 311 | 2.0 | 4.0 | 0.00 | 0.00 | 0.00 | 49 | 1018.0 |
| 20260503034417 | 49 | 327 | 2.0 | 5.0 | 0.00 | 0.00 | 0.00 | 48 | 1018.0 |
| 20260503033418 | 49 | 292 | 1.0 | 3.0 | 0.00 | 0.00 | 0.00 | 48 | 1017.9 |
| 20260503031419 | 49 | 292 | 2.0 | 2.0 | 0.00 | 0.00 | 0.00 | 46 | 1017.8 |
| 20260503030516 | 50 | 292 | 2.0 | 4.0 | 0.00 | 0.00 | 0.00 | 44 | 1017.9 |
| 20260503025518 | 51 | 315 | 0.0 | 1.0 | 0.00 | 0.00 | 0.00 | 42 | 1017.7 |
| 20260503024616 | 52 | 292 | 3.0 | 4.0 | 0.00 | 0.00 | 0.00 | 42 | 1017.8 |